COSMOS 508

Satellite information

Favourite Embed

Satellite Type and Status

PAYLOADIN ORBIT

Key statistics

Satellite COSMOS 508 at a glance.

Uptime

19511

Days in orbit

Revolutions

≈ 12.5

Per day

Orbit

LEO

Low Earth Orbit

Inclination

74.0

Latest

Satellite identification and parameters

Extended collection of information and parameters for COSMOS 508.

Object identification

Identified? True

Debris? False

Object name: COSMOS 508

International designator: 1972-057E

Object number (NORAD): 6121

Object ID (CCSDS): 6121

Country: COMMONWEALTH OF INDEPENDENT STATES (CIS)

Current information (Y/N): Y

RCS size: MEDIUM

Orbital parameters

Period: 115.302 minutes

Inclination: 74.0278 deg

SMA: 7847.241 km

Apoapsis: 1495.563 km

Periapsis: 1442.65 km

RAAN: 269.9619 deg

Eccentricy: 0.0033714

Argument of periapsis: 4.0749 deg

Mean anomaly: 114.8637 deg

Mean motion: 12.48898792 rev/day

Mean motion (dot): -0.00000005 rev/day2

B* drag term: 0.000071525 1/REarth

Two-line elements (TLE)

Creation date: Dec. 19, 2025, 9:06 p.m.

Reference frame: TEME

Reference center: EARTH

Epoch: Dec. 19, 2025, 6:16 a.m. UTC

TLE line 0: 0 COSMOS 508

TLE line 1: 1 6121U 72057E 25353.26153799 -.00000005 00000-0 71525-4 0 9991

TLE line 2: 2 6121 74.0278 269.9619 0033714 4.0749 114.8637 12.48898792435239

Live tracking on map

Real-time ground track for satellite COSMOS 508.

In-orbit conjunctions

A list of the most updated potential collisions computed for object COSMOS 508.

Target Orbit TCA Probability of collision Miss distance Type
DELTA 1 DEB SSO 2025-03-21 07:26:29 0.0001079821 636.0 (m) DEBRIS

Associated space launch

Military communications satellites

COSMOS 508 was lifted into orbit during the mission ‘Kosmos-3M | Strela-1M 25-32’, on board a Kosmos-3M space rocket.

The launch took place on July 20, 1972, 6:10 p.m. from 132/2.

For more information about the launch, click the button.

Launch to space Kosmos-3M | Strela-1M 25-32
Kosmos-3M | Strela-1M 25-32

Agency: N/A

Status: Launch Successful

Launch date: July 20, 1972, 6:10 p.m. UTC

Rocket: Kosmos-3M

Launch pad: 132/2

Location: Plesetsk Cosmodrome, Russian Federation

...

Latest news about this satellite

There are no fresh news available about this satellite. Check back as we update our databases every day.


Newsletter sign-up

Weekly statistics, charts and insights to help you stay on top of the space industry.